Wind_Speed
2 2 4 3 5 10 8 7 8 9 8 10 11 12 12 12 10 10 13 15 15 18 20 19 19 16 12 14 16 12 10 15 19 20 23 28 24 23 29 23 25 18 16
1 2 2 4 5 8 8 10 10 11 10 11 11 13 13 13 13 10 11 14 18 19 16 17 19 17 14 15 13 14 8 12 16 20 22 25 26 29 22 26 20 18 12
1 3 4 5 4 6 9 12 14 11 10 12 13 13 13 13 14 16 18 16 16 16 15 15 16 16 14 14 14 16 6 12 15 21 30 26 22 23 20 23 19 14 9
3 3 5 6 6 6 9 13 15 15 14 12 12 13 14 17 18 17 17 14 18 17 16 16 13 13 12 13 10 14 9 21 18 22 24 23 27 26 20 17 13 12 10
5 5 9 8 9 10 10 11 13 12 10 10 10 12 14 15 15 15 16 15 18 12 10 13 17 15 12 18 17 12 13 27 29 31 30 25 23 20 17 15 14 12 10
7 7 9 10 12 10 11 12 12 11 9 8 14 10 14 14 19 18 15 18 15 12 11 15 20 15 20 14 13 22 26 27 28 26 25 23 20 19 18 16 14 12 10
8 8 9 10 12 10 9 11 13 16 17 16 18 16 13 7 12 6 5 18 15 16 18 17 19 21 19 25 23 30 30 25 24 21 20 21 20 19 18 16 12 8 3
9 10 10 10 12 12 11 11 11 12 14 13 13 17 20 23 24 25 21 19 22 24 18 19 27 27 28 27 24 25 24 24 25 27 25 24 23 19 15 10 6 2 3
8 10 11 11 12 13 11 10 11 12 13 14 14 15 18 17 21 25 24 33 35 34 29 26 25 24 24 22 23 23 25 27 27 28 25 21 17 13 9 6 1 4 7
7 10 11 12 11 10 12 10 9 10 11 13 14 16 16 15 17 21 21 20 22 25 27 26 24 21 22 21 22 24 24 25 25 23 19 15 13 9 4 2 2 6 11
7 8 11 11 11 11 9 9 9 9 10 12 13 13 15 16 17 19 20 19 18 18 21 22 23 23 22 24 25 25 25 21 19 17 15 12 8 5 2 4 7 13 19
9 8 9 11 11 12 11 8 8 9 10 10 12 13 14 16 17 17 18 19 19 17 18 19 20 22 25 24 24 24 23 20 17 14 10 6 5 4 5 8 13 17 24
12 11 10 11 11 11 11 10 9 9 9 12 12 13 15 15 15 17 18 18 19 21 21 21 22 22 21 22 23 21 19 16 12 8 6 6 8 9 11 14 17 21 28
12 14 13 12 12 11 12 12 11 10 11 10 11 13 15 16 16 15 15 15 15 16 16 17 17 18 20 20 18 16 14 12 11 8 7 9 12 13 16 17 21 24 29
16 14 16 16 15 14 13 13 13 13 12 11 12 13 14 14 15 16 16 16 16 16 15 16 16 17 18 17 16 15 14 12 10 10 12 13 15 18 18 20 23 26 30
19 18 15 18 18 18 16 15 13 13 14 14 14 15 16 19 19 18 17 17 16 15 15 15 16 17 17 16 16 15 13 12 13 14 15 16 17 19 21 23 26 28 33
16 18 19 16 17 18 17 17 16 14 14 14 14 15 15 17 19 20 20 20 19 18 16 17 18 18 18 18 18 17 15 15 16 17 17 19 21 22 24 26 29 35 28
16 14 12 15 17 14 14 15 16 15 14 13 13 14 17 18 20 22 23 22 21 17 16 16 16 17 19 19 18 16 16 17 17 19 21 23 24 26 28 29 29 27 30
20 18 15 13 12 13 16 16 15 15 14 15 16 16 16 17 19 22 23 21 20 18 18 18 17 18 19 20 20 20 19 19 20 23 24 25 26 29 30 30 28 28 23
24 22 21 19 18 17 15 13 12 13 15 17 18 17 19 20 20 20 20 20 19 18 20 21 20 21 22 24 24 24 24 25 24 27 27 28 30 33 32 32 21 20 15
24 23 23 24 24 24 24 22 19 17 15 14 14 19 21 21 22 23 23 23 21 20 20 21 24 25 26 27 27 25 29 31 30 31 33 34 34 36 37 32 30 21 16
25 25 22 21 20 24 27 27 26 26 25 23 20 18 19 25 26 26 27 27 26 26 25 25 26 27 28 29 31 32 32 35 42 37 38 40 39 38 44 45 33 16 18
22 19 17 16 15 16 21 25 27 26 25 25 25 24 24 23 22 24 27 28 29 31 30 30 32 33 32 33 36 36 36 45 47 43 40 43 45 46 44 43 19 15 20
19 19 20 19 18 16 15 19 21 23 24 25 25 25 25 26 28 27 25 26 26 25 24 26 26 27 26 30 34 37 42 44 52 38 42 48 53 50 50 32 18 17 20
25 26 27 27 26 23 19 16 15 17 20 23 23 22 21 20 21 23 26 29 31 30 28 28 29 31 32 32 33 38 42 45 52 50 49 45 49 57 39 25 18 21 20
33 32 30 29 31 29 27 24 21 19 20 22 24 25 25 24 24 25 26 25 24 28 30 31 32 33 35 38 41 43 45 51 52 55 54 53 52 50 30 21 19 20 18
Wind_Direction
344 15 350 53 48 29 49 81 65 107 128 134 142 136 140 144 148 164 167 172 179 166 164 165 165 160 161 170 171 178 226 224 187 186 172 176 182 180 171 178 178 188 194
32 21 24 67 51 43 60 87 104 109 101 123 143 148 150 147 144 152 152 157 154 159 162 165 170 171 166 168 184 191 151 209 188 186 188 182 172 183 182 192 183 195 216
82 52 58 78 80 54 83 92 89 110 111 123 141 148 151 155 152 139 148 151 162 160 159 161 178 185 179 184 169 172 169 196 181 166 170 173 174 177 175 177 196 201 219
98 97 94 90 78 67 90 109 96 90 97 127 128 145 151 149 152 151 160 157 153 152 158 163 169 174 182 176 172 171 156 163 161 168 165 151 150 146 164 173 177 184 183
117 124 106 100 89 94 101 118 122 109 96 106 115 126 149 160 167 171 172 172 174 176 181 174 167 165 175 173 168 169 175 137 133 133 133 136 145 155 159 163 164 160 170
128 132 117 118 107 109 99 93 108 129 88 85 71 133 198 194 182 184 169 166 174 179 187 182 174 161 177 187 184 156 151 148 139 131 137 140 148 148 146 147 153 160 171
135 143 134 127 124 124 113 103 100 106 108 105 88 77 100 95 209 204 173 191 181 174 172 165 177 168 158 134 122 125 142 144 139 140 144 137 135 137 141 148 158 168 179
144 149 152 140 128 120 117 115 112 110 117 111 104 95 92 96 90 100 113 141 158 153 152 143 129 120 130 131 133 134 137 144 142 138 139 143 144 148 151 153 154 135 301
141 153 159 162 146 134 120 114 118 117 117 117 116 116 117 103 97 111 114 112 117 120 123 129 133 132 135 138 142 145 146 146 146 143 143 143 146 142 136 120 101 299 302
139 157 165 176 169 159 141 131 119 120 122 120 118 114 115 122 121 115 116 126 129 135 133 139 141 144 143 143 143 144 146 146 145 144 145 145 142 136 138 204 290 324 319
155 154 167 177 179 176 168 152 143 135 133 130 125 123 127 128 130 129 128 130 138 141 145 146 149 149 148 148 149 152 151 153 149 150 153 154 160 183 243 318 317 322 330
177 164 162 185 184 171 178 178 160 152 148 143 139 137 139 137 134 133 133 136 139 141 144 147 150 151 151 156 160 160 157 162 164 161 169 186 204 252 292 320 326 328 328
190 185 173 180 180 169 166 176 172 164 162 153 151 147 148 148 144 142 142 144 147 150 154 157 159 160 162 162 164 166 167 170 172 179 197 219 257 282 307 318 318 318 320
188 199 191 192 184 175 169 166 172 172 163 164 159 160 162 159 158 157 158 159 160 161 164 168 173 175 176 176 178 180 185 191 197 208 230 256 275 289 300 302 308 313 322
191 195 199 198 195 184 176 171 168 174 177 173 173 176 176 175 173 173 174 174 176 180 186 191 190 188 188 191 196 201 207 214 225 234 247 261 282 290 290 298 306 313 317
199 196 197 202 202 193 187 183 184 184 183 188 188 181 181 187 189 189 190 192 193 195 198 197 196 197 201 207 215 221 229 237 244 252 264 273 279 287 294 297 299 308 316
189 197 201 200 205 206 197 193 190 192 194 202 202 201 198 198 200 202 204 205 208 213 212 208 208 210 216 223 230 237 244 252 257 262 270 277 281 284 284 289 306 299 302
181 181 185 206 210 208 206 204 207 205 203 208 210 217 216 211 209 211 215 218 224 230 228 229 228 224 225 233 243 254 260 261 265 270 277 279 279 281 285 288 297 296 299
198 197 198 198 198 205 213 218 221 224 223 219 220 218 224 230 226 226 232 234 237 240 241 240 241 241 241 244 250 254 258 266 270 272 276 279 282 284 289 285 286 288 290
215 218 219 219 218 217 220 219 221 229 235 235 235 232 231 234 241 246 252 252 251 252 248 244 243 247 250 254 256 261 264 265 268 275 278 281 281 285 285 270 269 263 262
216 219 221 223 225 226 227 231 236 239 239 241 244 240 240 242 244 249 254 255 255 252 251 253 250 248 249 254 255 262 264 271 269 271 277 280 283 286 281 261 266 261 242
216 219 227 230 233 235 232 229 232 238 241 244 244 246 247 245 244 246 249 253 257 255 252 251 253 255 255 257 263 261 265 268 277 267 272 277 277 282 268 270 265 212 239
208 215 223 231 236 238 235 235 235 237 243 246 245 245 249 255 259 257 256 258 259 260 260 256 253 252 255 259 260 261 264 268 267 277 259 267 266 266 243 249 213 199 242
229 232 233 240 250 250 249 242 240 240 240 242 244 246 248 253 256 253 254 257 259 260 262 260 256 256 266 276 266 261 264 267 272 283 282 268 262 247 243 242 178 209 236
244 243 234 232 233 245 253 251 247 248 245 241 241 244 247 252 259 261 262 260 258 255 254 260 263 265 267 275 276 269 265 270 271 282 287 268 256 257 233 222 184 223 235
241 245 239 232 231 231 240 251 255 265 261 254 249 249 251 252 258 264 270 274 266 261 259 252 255 260 265 271 276 274 271 272 271 273 282 299 259 250 239 187 194 220 234
Height
3058 3055 3054 3055 3053 3050 3048 3047 3046 3046 3046 3047 3048 3051 3052 3054 3056 3059 3061 3063 3066 3068 3071 3075 3078 3081 3085 3089 3092 3095 3098 3101 3104 3109 3113 3117 3122 3128 3134 3141 3147 3152 3156
3057 3056 3055 3055 3054 3051 3050 3048 3048 3048 3048 3049 3051 3052 3054 3056 3059 3060 3062 3065 3068 3071 3075 3078 3080 3083 3087 3090 3093 3096 3098 3099 3103 3107 3112 3117 3122 3129 3136 3141 3146 3152 3155
3057 3056 3055 3056 3054 3053 3052 3052 3051 3051 3050 3051 3053 3055 3057 3059 3061 3063 3065 3068 3071 3074 3076 3079 3083 3085 3089 3092 3094 3097 3099 3101 3105 3109 3114 3119 3124 3131 3137 3143 3148 3153 3155
3057 3057 3057 3057 3056 3055 3054 3054 3054 3054 3054 3055 3055 3057 3058 3061 3063 3065 3068 3070 3072 3075 3077 3080 3083 3087 3090 3092 3095 3097 3100 3103 3106 3110 3116 3121 3127 3134 3140 3145 3149 3151 3153
3058 3058 3058 3058 3058 3058 3057 3057 3057 3057 3058 3059 3060 3060 3061 3062 3064 3067 3069 3072 3074 3077 3079 3081 3084 3087 3090 3093 3097 3098 3103 3107 3110 3114 3120 3126 3132 3137 3141 3145 3149 3152 3155
3059 3059 3060 3061 3061 3061 3061 3060 3059 3060 3062 3061 3062 3062 3062 3061 3063 3066 3069 3072 3075 3078 3080 3082 3085 3088 3093 3096 3097 3101 3104 3111 3116 3120 3125 3130 3134 3139 3143 3147 3150 3153 3156
3060 3061 3062 3062 3063 3064 3064 3063 3064 3064 3066 3065 3065 3064 3064 3061 3062 3064 3067 3070 3074 3078 3081 3084 3085 3089 3094 3099 3101 3105 3111 3115 3117 3124 3129 3133 3137 3141 3145 3149 3151 3154 3157
3062 3062 3063 3065 3065 3066 3067 3067 3067 3068 3068 3069 3070 3070 3070 3067 3068 3069 3069 3070 3075 3078 3082 3086 3092 3095 3098 3104 3107 3111 3116 3120 3123 3127 3132 3136 3139 3144 3148 3150 3153 3155 3155
3062 3063 3064 3066 3067 3068 3069 3070 3070 3071 3071 3072 3073 3074 3075 3076 3074 3077 3078 3078 3081 3085 3089 3093 3098 3102 3105 3110 3113 3117 3120 3124 3128 3131 3135 3140 3143 3146 3148 3150 3151 3153 3152
3062 3064 3065 3067 3068 3070 3070 3072 3072 3073 3075 3075 3076 3077 3078 3080 3081 3082 3085 3087 3090 3092 3094 3098 3102 3106 3110 3113 3117 3121 3125 3128 3131 3135 3139 3141 3143 3145 3147 3149 3151 3150 3150
3062 3064 3066 3068 3070 3071 3072 3073 3075 3075 3077 3078 3079 3081 3082 3084 3086 3087 3088 3092 3095 3098 3100 3103 3105 3108 3112 3116 3120 3124 3127 3132 3135 3137 3140 3142 3143 3144 3145 3147 3147 3147 3145
3062 3064 3066 3068 3070 3072 3073 3075 3076 3077 3079 3080 3082 3083 3085 3087 3089 3091 3093 3095 3098 3102 3105 3107 3110 3113 3116 3120 3123 3126 3129 3134 3137 3139 3140 3141 3141 3142 3144 3144 3143 3140 3137
3062 3064 3065 3068 3070 3071 3073 3076 3077 3079 3081 3083 3084 3086 3089 3090 3092 3094 3096 3099 3101 3103 3106 3110 3113 3115 3118 3121 3124 3128 3131 3134 3135 3137 3138 3138 3138 3139 3139 3138 3137 3135 3133
3062 3064 3065 3068 3070 3071 3073 3075 3077 3079 3081 3083 3086 3088 3090 3092 3095 3097 3099 3101 3103 3106 3108 3111 3113 3116 3119 3122 3125 3127 3129 3132 3134 3135 3135 3135 3135 3135 3135 3134 3133 3130 3127
3061 3063 3065 3067 3069 3071 3073 3075 3077 3079 3082 3084 3086 3088 3091 3094 3096 3098 3101 3104 3106 3107 3109 3111 3114 3116 3119 3121 3123 3126 3128 3130 3131 3133 3133 3133 3132 3131 3129 3129 3126 3124 3121
3059 3062 3064 3066 3068 3070 3073 3075 3077 3078 3080 3083 3085 3088 3090 3093 3095 3098 3101 3103 3104 3107 3109 3111 3113 3116 3118 3120 3122 3124 3125 3127 3128 3129 3129 3129 3128 3126 3123 3122 3122 3119 3115
3057 3060 3063 3065 3067 3069 3071 3073 3076 3078 3080 3082 3084 3086 3089 3092 3094 3096 3098 3101 3103 3104 3106 3108 3111 3113 3116 3117 3119 3121 3122 3123 3124 3124 3124 3123 3121 3121 3120 3118 3115 3112 3110
3055 3058 3061 3064 3066 3068 3070 3072 3073 3076 3079 3081 3084 3086 3087 3089 3091 3093 3094 3096 3097 3100 3103 3105 3107 3109 3111 3113 3114 3116 3117 3118 3118 3119 3118 3118 3117 3115 3114 3112 3110 3107 3105
3052 3055 3059 3062 3064 3066 3068 3070 3072 3073 3076 3078 3080 3082 3085 3087 3088 3089 3090 3093 3095 3097 3099 3101 3103 3105 3106 3107 3109 3110 3111 3112 3113 3113 3112 3112 3111 3109 3107 3104 3102 3100 3098
3048 3052 3055 3058 3061 3063 3065 3067 3068 3071 3073 3075 3077 3080 3081 3082 3084 3086 3087 3089 3091 3094 3095 3096 3098 3100 3101 3102 3103 3105 3105 3104 3105 3105 3105 3104 3103 3101 3099 3093 3092 3094 3095
3044 3047 3050 3052 3055 3058 3061 3063 3065 3067 3069 3071 3073 3075 3077 3078 3080 3081 3083 3084 3086 3089 3090 3092 3093 3094 3095 3096 3096 3096 3097 3097 3097 3097 3097 3096 3094 3092 3089 3082 3082 3083 3089
3039 3043 3045 3048 3050 3052 3054 3057 3059 3062 3064 3066 3068 3070 3070 3071 3073 3075 3076 3078 3079 3081 3083 3085 3086 3087 3088 3088 3089 3089 3089 3088 3088 3087 3086 3085 3084 3081 3077 3073 3072 3080 3083
3034 3038 3041 3043 3045 3046 3048 3051 3053 3055 3058 3060 3061 3063 3064 3065 3067 3068 3070 3071 3072 3073 3075 3076 3077 3078 3079 3080 3080 3080 3080 3079 3075 3072 3074 3073 3070 3069 3061 3060 3061 3070 3079
3029 3032 3035 3037 3039 3042 3043 3044 3046 3048 3051 3052 3054 3056 3057 3058 3058 3060 3062 3063 3063 3064 3065 3066 3067 3068 3068 3068 3068 3070 3068 3068 3066 3061 3061 3055 3057 3050 3050 3055 3057 3066 3070
3021 3024 3027 3029 3032 3034 3037 3039 3040 3041 3043 3044 3046 3048 3050 3051 3051 3052 3053 3054 3054 3055 3056 3057 3057 3058 3059 3059 3059 3059 3058 3056 3053 3049 3046 3046 3044 3043 3046 3047 3055 3063 3067
3013 3015 3018 3021 3023 3025 3029 3032 3033 3034 3035 3037 3039 3040 3042 3043 3044 3044 3044 3044 3045 3046 3048 3048 3049 3050 3050 3050 3049 3049 3047 3045 3044 3040 3039 3034 3033 3035 3040 3044 3051 3059 3063